{"data":{"norad_id":50486,"epoch":"2026-05-25T01:22:00.347808Z","epoch_age_seconds":80515,"freshness":"FRESH","line1":"1 50486U 21132T   26145.05694847 -.00000032  00000+0 -11345-3 0  9996","line2":"2 50486  87.9160 340.0604 0002337  97.0181 263.1217 13.18687825218578","mean_motion":13.18687825,"eccentricity":0.0002337,"inclination_deg":87.916,"raan_deg":340.0604,"arg_perigee_deg":97.0181,"mean_anomaly_deg":263.1217,"bstar":-0.00011345,"rev_number":21857,"period_min":109.19946121441,"perigee_km":1187.9675325254,"apogee_km":1191.5047564332,"semimajor_km":7567.8731444793,"source":"CELESTRAK","updated_at":"2026-05-25T13:38:22.531647Z"}}